Regional Weather Roundup
Issued by NWS

Home | Current Version | Previous Version | Text Only | Print | Product List | Glossary On
Versions: 1 2 3 4 5 6 7 8 9 10 11 12 13 14 15 16 17 18 19 20 21 22 23 24 25 26 27 28 29 30 31 32 33 34 35 36 37 38 39 40 41 42 43 44 45 46 47 48 49 50
000
ASUS43 KOAX 270210
RWRNE

WEATHER ROUNDUP FOR NEBRASKA
NATIONAL WEATHER SERVICE OMAHA NE
800 PM CST SUN FEB 26 2017

NOTES: SATELLITE DATA IS BEING USED TO AUGMENT CLOUD COVER ABOVE
       12000 FEET.
       "FAIR" INDICATES FEW OR NO CLOUDS BELOW 12,000 FEET WITH NO
       SIGNIFICANT WEATHER AND/OR OBSTRUCTIONS TO VISIBILITY.

  * THESE STATIONS DO NOT REPORT WEATHER SUCH AS RAIN...SNOW OR FOG.

NEZ001>004-019>022-054>056-270300-
NEBRASKA PANHANDLE

CITY           SKY/WX    TMP DP  RH WIND       PRES   REMARKS
SCOTTSBLUFF    CLEAR     16   7  67 SE7       29.82S WCI   6
ALLIANCE       CLOUDY     9   3  77 SW9       29.82S WCI  -4
CHADRON        CLEAR     15   7  70 CALM      29.83R
KIMBALL        CLEAR     20  13  77 E5        29.80S WCI  13
SIDNEY         CLEAR     22  12  65 NE5       29.83R WCI  16
$$

NEZ057>060-069>072-079>082-270300-
SOUTHWEST NEBRASKA

CITY           SKY/WX    TMP DP  RH WIND       PRES   REMARKS
NORTH PLATTE   CLEAR     22  13  68 CALM      29.90S
IMPERIAL       CLEAR     24  15  68 E6        29.88R WCI  17
LEXINGTON      CLEAR     29  16  56 SW3       29.93S
MCCOOK         CLEAR     27  10  49 NE6       29.92R WCI  20
OGALLALA       CLOUDY    25  16  66 CALM      29.87S
$$

NEZ005>010-023>029-035>040-094-270300-
NORTH CENTRAL NEBRASKA

CITY           SKY/WX    TMP DP  RH WIND       PRES   REMARKS
VALENTINE      CLOUDY    17   9  70 SW8       29.86R WCI   7
AINSWORTH      CLOUDY    22  15  74 SW8       29.87S WCI  12
BROKEN BOW     CLEAR     25  17  72 CALM      29.90S
O`NEILL        CLEAR     29  20  69 SW6       29.91R WCI  23
ORD            CLEAR     24  17  74 SW6       29.91S WCI  17
THEDFORD       CLOUDY    20  13  75 SW3       29.89R
$$

NEZ041-046>049-061>064-073>077-083>087-270300-
SOUTH CENTRAL NEBRASKA

CITY           SKY/WX    TMP DP  RH WIND       PRES   REMARKS
GRAND ISLAND   CLEAR     33  19  56 W3        29.95R
AURORA         CLEAR     34  18  50 CALM      29.95S
HASTINGS       CLEAR     33  16  49 SW3       29.96R
HEBRON         CLEAR     32  16  50 CALM      29.97S
HOLDREGE       CLEAR     32  12  44 CALM      29.94S
KEARNEY *      CLEAR     34  14  44 CALM      29.95R
YORK           CLEAR     34  25  69 SE5       29.96R WCI  30
$$

NEZ011>018-030>034-042>045-270300-
NORTHEAST NEBRASKA

CITY           SKY/WX    TMP DP  RH WIND       PRES   REMARKS
NORFOLK        CLEAR     29  21  72 S8        29.93R WCI  21
ALBION         CLEAR     31  20  65 SE3       29.93S
BLAIR          CLEAR     36  24  61 CALM      29.97R
FREMONT        CLEAR     32  24  73 CALM      29.98R
TEKAMAH        CLEAR     28  24  85 S3        29.98R
WAYNE          CLEAR     26  21  80 S6        29.94S WCI  20
$$

NEZ050>053-065>068-078-088>093-270300-
SOUTHEAST NEBRASKA

CITY           SKY/WX    TMP DP  RH WIND       PRES   REMARKS
LINCOLN        CLEAR     32  23  69 CALM      29.99R
OMAHA EPPLEY   CLEAR     34  24  67 CALM      29.98R
BEATRICE       CLEAR     31  22  67 CALM      29.98R
FALLS CITY     CLEAR     40  22  48 N5        29.98R
NEBRASKA CITY  PTCLDY    36  17  45 CALM      29.99R
PLATTSMOUTH    CLEAR     34  18  52 CALM      29.98R
$$

NEZ044-045-051>053-067-270300-
OMAHA AREA

CITY           SKY/WX    TMP DP  RH WIND       PRES   REMARKS
OMAHA EPPLEY   CLEAR     34  24  67 CALM      29.98R
BLAIR          CLEAR     36  24  61 CALM      29.97R
FREMONT        CLEAR     32  24  73 CALM      29.98R
MILLARD        CLEAR     34  26  75 CALM      29.98S
OFFUTT AFB     CLEAR     29  20  70 CALM      29.97S
PLATTSMOUTH    CLEAR     34  18  52 CALM      29.98R
WAHOO          FAIR      33  25  71 CALM      29.97S
$$




USA.gov is the U.S. government's official web portal to all federal, state and local government web resources and services.